[[{"header":{"parameterUnit":"m.s-1","parameterCategory":1,"la1":30.2991,"la2":30.254,"lo1":-89.0895,"lo2":-89.0444,"dy":0.0017,"dx":0.0017,"nx":28,"ny":28,"refTime":"2024-06-14T03:00:00:Z","depth":0,"parameterNumber":2,"parameterNumberName":"U-component_of_WINDS"},"data":[0,0,0,0,0,0,0,0,0,0,0,0,0,0,0,0,0,0,0,0,0,0,0,0,0,0,0,0,0,0,0,0,0,0,0,0,0,0,0,0,0,0,0,0,0,0,0,0,0,0,0,0,0,0,0,0,0,0,0.5024,0.5025,0,0.5105,0.5106,0.5107,0.5165,0.5166,0.5166,0.5167,0.5248,0.525,0.5252,0,0,0,0,0,0,0,0,0,0,0,0,0,0.4916,0.4917,0.5024,0.5025,0.5026,0.5105,0.5106,0.5107,0.5165,0.5166,0.5166,0.5167,0.5248,0.525,0.5252,0,0,0,0,0,0,0,0,0,0,0,0,0,0.4976,0.4918,0.5024,0.5065,0.5069,0.5105,0.5106,0.5108,0.5165,0.5166,0.5166,0.5167,0.5247,0.5249,0.5252,0.5254,0,0,0.526,0.5261,0,0,0,0,0,0,0,0,0.4973,0.498,0.5058,0.5062,0.5067,0.5126,0.5098,0.5157,0.5165,0.5128,0.5167,0.5167,0.5207,0.5213,0.5226,0.5258,0.5261,0.526,0.5262,0.5263,0.5264,0,0,0,0,0,0,0,0.4968,0.4977,0.5056,0.5059,0.5064,0.5077,0.5087,0.5109,0.5163,0.5132,0.5136,0.5145,0.521,0.5224,0.5229,0.5262,0.526,0.5262,0.5264,0.5265,0.5295,0.5295,0,0,0,0,0,0,0.4958,0.4973,0.5054,0.5059,0.5021,0.5079,0.5089,0.5106,0.5163,0.5172,0.5144,0.5147,0.5219,0.5226,0.5232,0.5235,0.5263,0.5265,0.5267,0.5296,0.5295,0.5294,0,0,0,0,0,0,0.4956,0.4965,0.505,0.5017,0.5029,0.508,0.5098,0.5107,0.5122,0.5172,0.5182,0.5149,0.522,0.5228,0.5247,0.5239,0.5266,0.5269,0.5297,0.5296,0.5295,0.5244,0,0,0,0,0,0,0.4952,0.4964,0.4966,0.5017,0.5031,0.5065,0.5098,0.5109,0.5126,0.5131,0.5179,0.5188,0.5221,0.5243,0.525,0.5243,0.5271,0.5298,0.5296,0.5295,0.5246,0.5241,0.5236,0,0,0,0,0,0.4948,0.4949,0.4966,0.4975,0.5035,0.5065,0.5073,0.5111,0.5126,0.5127,0.5159,0.5186,0.5239,0.5244,0.5253,0.5247,0.5299,0.5297,0.5295,0.5248,0.5242,0.5236,0,0,0,0,0,0,0.4896,0.4956,0.4976,0.4993,0.5023,0.5075,0.5079,0.5104,0.513,0.5134,0.518,0.519,0.5203,0.5227,0.5232,0.5249,0.5272,0.5272,0.5234,0.5228,0.5223,0.5216,0.5273,0,0,0,0,0,0.4886,0.4907,0.4958,0.4968,0.4982,0.5027,0.5042,0.5069,0.5102,0.5115,0.5149,0.5179,0.5202,0.5216,0.5241,0.525,0.526,0.5249,0.5244,0.524,0.5239,0.5243,0.5238,0.5289,0.5289,0.5289,0,0,0.4867,0.4903,0.4913,0.4959,0.4985,0.5004,0.5038,0.5057,0.5071,0.5118,0.5138,0.5163,0.5199,0.5213,0.522,0.5233,0.5227,0.5238,0.5234,0.5236,0.524,0.5235,0.5231,0.5288,0.5288,0.5288,0,0,0.4841,0.4871,0.4881,0.4907,0.4946,0.4976,0.4978,0.5025,0.5043,0.5063,0.5098,0.5114,0.5154,0.5178,0.5195,0.5174,0.5199,0.5181,0.5154,0.5157,0.5153,0.515,0.514,0.5136,0.518,0.518,0.518,0,0.4812,0.4842,0.4883,0.4899,0.4917,0.496,0.4969,0.4992,0.5037,0.5048,0.5061,0.511,0.5138,0.5156,0.515,0.5163,0.5166,0.5175,0.5151,0.5148,0.5145,0.5136,0.5133,0.5177,0.5177,0.5178,0.5178,0,0.4803,0.4823,0.4827,0.4868,0.4887,0.49,0.4941,0.4954,0.4978,0.5005,0.5024,0.5058,0.5089,0.5095,0.512,0.5115,0.5122,0.5142,0.5166,0.5137,0.5129,0.5126,0.5173,0.5174,0.5175,0.5176,0,0,0.4748,0.481,0.4811,0.4829,0.4874,0.489,0.4903,0.4933,0.4942,0.4971,0.4982,0.5013,0.5031,0.505,0.5077,0.508,0.5058,0.51,0.5102,0.5089,0.5052,0.5035,0.5031,0.5075,0.5074,0.5074,0.5048,0,0.4728,0.4755,0.479,0.4805,0.4822,0.4861,0.4873,0.49,0.4925,0.4943,0.4971,0.4991,0.5015,0.5026,0.503,0.5059,0.5051,0.5062,0.5083,0.5084,0.5072,0.5028,0.5011,0.4985,0.5046,0.5045,0.5045,0,0.4709,0.4734,0.475,0.4791,0.4799,0.4809,0.4837,0.4854,0.4885,0.4903,0.4923,0.4951,0.4965,0.4986,0.5004,0.5011,0.5022,0.5037,0.5037,0.5039,0.5062,0.5027,0.4978,0.4973,0.5041,0.5042,0.5042,0,0.4664,0.4703,0.4716,0.4731,0.478,0.4785,0.4805,0.4837,0.4851,0.4876,0.4885,0.491,0.4924,0.4942,0.4976,0.4989,0.4989,0.5014,0.5003,0.5002,0.5001,0.5,0.4951,0.501,0.501,0.501,0.501,0,0.4637,0.4645,0.4697,0.4705,0.4714,0.4753,0.476,0.4784,0.4811,0.4823,0.4859,0.4869,0.4914,0.4929,0.4955,0.4964,0.4971,0.4984,0.4991,0.498,0.4978,0.4987,0.4989,0.5009,0.5009,0.5009,0.5009,0,0.4589,0.4625,0.4642,0.4685,0.4696,0.47,0.4737,0.4746,0.4772,0.4786,0.4792,0.4833,0.4852,0.4887,0.4916,0.4934,0.4937,0.495,0.4926,0.493,0.4916,0.4916,0.487,0.4864,0.4928,0.4927,0.4926,0,0.4569,0.4576,0.4619,0.463,0.4649,0.4666,0.468,0.4718,0.4731,0.4765,0.4769,0.4791,0.481,0.4838,0.4869,0.4891,0.4903,0.4886,0.4907,0.4895,0.4901,0.4899,0.4899,0.488,0.488,0.4879,0.4878,0,0.4529,0.4546,0.4566,0.459,0.4606,0.4627,0.465,0.4657,0.47,0.4712,0.4732,0.4747,0.4775,0.4795,0.4821,0.484,0.4865,0.4871,0.4869,0.4858,0.4843,0.4849,0.4911,0.4872,0.4873,0.4873,0.4874,0.4874,0.4494,0.45,0.4531,0.4551,0.4572,0.4591,0.46,0.4627,0.4644,0.467,0.4691,0.4708,0.4736,0.4773,0.479,0.4803,0.4815,0.4813,0.4813,0.4811,0.4806,0.4842,0.4808,0.4808,0.4809,0.4809,0.4809,0,0.4454,0.4475,0.4493,0.4523,0.4537,0.456,0.4586,0.4596,0.461,0.4634,0.4652,0.4672,0.4691,0.4723,0.4744,0.4748,0.4759,0.4752,0.4751,0.4754,0.4795,0.4793,0.4742,0.4742,0.4742,0.4742,0.4742,0.4742,0.4435,0.4446,0.4465,0.4486,0.4507,0.4523,0.4536,0.4553,0.4572,0.4593,0.4609,0.463,0.4656,0.4678,0.4695,0.4704,0.4709,0.4697,0.4709,0.4746,0.4752,0.4758,0.4757,0.4699,0.4698,0.4668,0.4668,0.4667]},{"header":{"parameterUnit":"m.s-1","parameterCategory":1,"la1":30.2991,"la2":30.254,"lo1":-89.0895,"lo2":-89.0444,"dy":0.0017,"dx":0.0017,"nx":28,"ny":28,"refTime":"2024-06-14T03:00:00:Z","depth":0,"parameterNumber":3,"parameterNumberName":"V-component_of_WINDS"},"data":[0,0,0,0,0,0,0,0,0,0,0,0,0,0,0,0,0,0,0,0,0,0,0,0,0,0,0,0,0,0,0,0,0,0,0,0,0,0,0,0,0,0,0,0,0,0,0,0,0,0,0,0,0,0,0,0,0,0,3.7735,3.7734,0,3.7681,3.768,3.768,3.7669,3.767,3.767,3.7671,3.7608,3.7606,3.7603,0,0,0,0,0,0,0,0,0,0,0,0,0,3.7823,3.7822,3.7735,3.7734,3.7734,3.7681,3.768,3.7679,3.7669,3.767,3.767,3.7671,3.7608,3.7606,3.7603,0,0,0,0,0,0,0,0,0,0,0,0,0,3.7778,3.7821,3.7735,3.7723,3.7721,3.7681,3.768,3.7679,3.7669,3.767,3.7671,3.7671,3.7609,3.7606,3.7603,3.757,0,0,3.7593,3.7592,0,0,0,0,0,0,0,0,3.7781,3.7775,3.7725,3.7723,3.7721,3.7683,3.7688,3.7642,3.7669,3.7689,3.7671,3.7672,3.7632,3.7627,3.7615,3.7567,3.7564,3.7593,3.7591,3.759,3.7589,0,0,0,0,0,0,0,3.7784,3.7777,3.7713,3.7724,3.7722,3.7717,3.7712,3.7679,3.7657,3.7687,3.7686,3.768,3.7631,3.7618,3.7613,3.7563,3.7593,3.759,3.7588,3.7587,3.7485,3.7484,0,0,0,0,0,0,3.779,3.778,3.7715,3.7712,3.7754,3.7715,3.7709,3.7694,3.7657,3.7652,3.768,3.768,3.7623,3.7617,3.7611,3.7569,3.759,3.7587,3.7585,3.7485,3.7484,3.7483,0,0,0,0,0,0,3.7792,3.7785,3.7717,3.7746,3.7737,3.7713,3.7697,3.7693,3.768,3.7652,3.7647,3.7671,3.7623,3.7615,3.758,3.7567,3.7585,3.7583,3.7486,3.7485,3.7484,3.7485,0,0,0,0,0,0,3.7795,3.7785,3.7774,3.7746,3.7735,3.769,3.7696,3.7691,3.7676,3.7675,3.7642,3.7637,3.7623,3.7585,3.7577,3.7563,3.758,3.7487,3.7486,3.7484,3.7486,3.7484,3.7483,0,0,0,0,0,3.7798,3.7775,3.7774,3.7766,3.7721,3.7689,3.7683,3.7669,3.7675,3.7662,3.7644,3.7638,3.757,3.7582,3.7573,3.7557,3.7488,3.7486,3.7484,3.7487,3.7485,3.7483,0,0,0,0,0,0,3.78,3.7771,3.7769,3.7737,3.7716,3.7688,3.7671,3.7667,3.7642,3.7643,3.7624,3.7617,3.7583,3.7566,3.758,3.7522,3.7529,3.7525,3.7534,3.7532,3.753,3.7534,3.7577,0,0,0,0,0,3.7797,3.7776,3.7751,3.7725,3.7715,3.7695,3.768,3.7672,3.7648,3.7639,3.7618,3.7593,3.7566,3.7548,3.7521,3.7485,3.7476,3.7469,3.7467,3.7466,3.7462,3.744,3.7437,3.7477,3.7477,3.7477,0,0,3.779,3.7772,3.7759,3.7725,3.7708,3.7684,3.7687,3.7662,3.7643,3.7634,3.76,3.7584,3.7555,3.7519,3.7502,3.7504,3.7449,3.7463,3.7463,3.7459,3.7438,3.7434,3.7431,3.7476,3.7476,3.7476,0,0,3.7765,3.775,3.7726,3.771,3.7684,3.7671,3.7666,3.7638,3.7628,3.7595,3.7587,3.7563,3.7517,3.7497,3.748,3.7449,3.7442,3.744,3.743,3.7409,3.7405,3.7402,3.739,3.7386,3.7437,3.7437,3.7437,0,3.7759,3.7725,3.7714,3.769,3.7674,3.7667,3.7642,3.7625,3.7591,3.758,3.7584,3.7526,3.7506,3.7465,3.7457,3.7445,3.7436,3.7443,3.7407,3.7404,3.7401,3.7389,3.7384,3.7437,3.7437,3.7437,3.7437,0,3.7718,3.7694,3.7678,3.7648,3.7631,3.7606,3.7589,3.7573,3.7566,3.7552,3.7517,3.7494,3.7462,3.7452,3.7444,3.7409,3.7411,3.7412,3.7417,3.7397,3.7385,3.7381,3.7437,3.7437,3.7437,3.7437,0,0,3.7691,3.7657,3.7651,3.7637,3.7609,3.759,3.7564,3.7536,3.7521,3.7498,3.7475,3.7436,3.7437,3.7418,3.7408,3.739,3.7365,3.7392,3.7391,3.7387,3.7323,3.7322,3.7317,3.7361,3.736,3.736,3.7325,0,3.7662,3.7618,3.7608,3.7569,3.7546,3.754,3.7517,3.7496,3.7483,3.7459,3.7444,3.7417,3.742,3.7408,3.7391,3.7372,3.7351,3.7374,3.7337,3.7335,3.7343,3.7311,3.731,3.7278,3.7321,3.732,3.7319,0,3.7621,3.76,3.756,3.7535,3.7525,3.7505,3.7478,3.7457,3.7433,3.7424,3.7404,3.7396,3.7366,3.7376,3.7334,3.7349,3.7333,3.7322,3.732,3.7315,3.7325,3.7303,3.7268,3.7263,3.7312,3.7313,3.7313,0,3.7604,3.7565,3.7536,3.7525,3.7495,3.7481,3.7468,3.7445,3.7428,3.7404,3.7393,3.7365,3.7349,3.7326,3.731,3.7318,3.7269,3.7276,3.7258,3.7259,3.7247,3.7247,3.7207,3.7239,3.7239,3.7239,3.724,0,3.7572,3.7547,3.7528,3.751,3.7482,3.747,3.7441,3.7427,3.7407,3.7384,3.7376,3.7355,3.7335,3.7311,3.7297,3.7264,3.7257,3.7247,3.7244,3.7247,3.7248,3.7235,3.7236,3.7238,3.7238,3.7239,3.7239,0,3.7547,3.7534,3.7502,3.7477,3.747,3.745,3.7428,3.7409,3.7396,3.7368,3.736,3.7339,3.7309,3.7292,3.7253,3.7245,3.7207,3.7205,3.7216,3.7214,3.7197,3.7198,3.7145,3.7137,3.7176,3.7176,3.7176,0,3.7526,3.7507,3.7482,3.7467,3.7454,3.7431,3.7415,3.7402,3.7385,3.7356,3.734,3.7311,3.7287,3.7239,3.7219,3.719,3.7186,3.7169,3.7181,3.7185,3.7183,3.7184,3.7181,3.7167,3.7166,3.7166,3.7166,0,3.749,3.7485,3.7463,3.7439,3.7421,3.74,3.738,3.7368,3.7351,3.7332,3.7304,3.7285,3.7248,3.7218,3.7187,3.7171,3.7164,3.7163,3.7157,3.7159,3.7166,3.716,3.7209,3.7163,3.7164,3.7164,3.7164,3.7164,3.7466,3.7449,3.7428,3.7404,3.7388,3.7369,3.735,3.7336,3.7312,3.7282,3.7276,3.7245,3.722,3.7179,3.7162,3.7136,3.7138,3.713,3.7127,3.7125,3.7124,3.7172,3.7131,3.7131,3.7131,3.7131,3.7131,0,3.7428,3.7415,3.7393,3.7366,3.7346,3.7346,3.7323,3.7306,3.728,3.7259,3.7236,3.7203,3.7174,3.7152,3.7122,3.7106,3.7102,3.7098,3.7098,3.7094,3.7124,3.7132,3.7102,3.7102,3.7102,3.7102,3.7102,3.7102,3.7406,3.7377,3.7369,3.7331,3.7317,3.7289,3.7276,3.7258,3.7242,3.7205,3.7182,3.7169,3.7147,3.7116,3.7089,3.7083,3.7071,3.7068,3.7061,3.7089,3.7092,3.7095,3.7102,3.7066,3.7066,3.7032,3.7032,3.7032]}]]